Weather History for KAVC - January, 2014

Change the Weather History Date:

Saturday, January 11, 2014

  Actual Average (KEMV) Record (KEMV)
Temperature  
Mean Temperature 56 °F -  
Max Temperature 69 °F 48 °F 73 °F (2008)
Min Temperature 42 °F 28 °F 8 °F (1988)
Degree Days  
Heating Degree Days 10    
Growing Degree Days 6 (Base 50)    
Moisture  
Dew Point 54 °F    
Average Humidity 98    
Maximum Humidity 100    
Minimum Humidity 61    
Precipitation  
Precipitation 0.54 in - - ()
Sea Level Pressure  
Sea Level Pressure 29.82 in    
Wind  
Wind Speed 5 mph (SSW)    
Max Wind Speed 20 mph    
Max Gust Speed 38 mph    
Visibility 6 miles    
Events Fog , Rain , Thunderstorm    
Averages and records for this station are not official NWS values.
T = Trace of Precipitation, MM = Missing Value Source: NWS Daily Summary

Daily Weather History Graph

Daily Weather History Graph

Search for Another Location

Airport or City:

Trip Planner

Search our weather history database for the weather conditions in past years. The results will help you decide how hot, cold, wet, or windy it might be!

Date:

Astronomy

Jan. 11, 2014 Rise Set
Actual Time 7:24 AM EST 5:15 PM EST
Civil Twilight 6:56 AM EST 5:44 PM EST
Nautical Twilight 6:24 AM EST 6:16 PM EST
Astronomical Twilight 5:53 AM EST 6:47 PM EST
Moon 1:57 PM EST (1/11) 3:29 AM EST (1/11)
Length of Visible Light 10h 48m
Length of Day
9h 51m
Waxing Gibbous, 83% of the Moon is Illuminated
Jan 11
Waxing Gibbous
Jan 15
Full
Jan 24
Last Quarter
Jan 30
New
Feb 6
First Quarter

Hourly Weather History & Observations

Time (EST) Temp. Windchill Dew Point Humidity Pressure Visibility Wind Dir Wind Speed Gust Speed Precip Events Conditions
12:15 AM 44.6 °F 40.7 °F 32.0 °F 61% 30.13 in 0.5 mi WNW 6.9 mph - 0.01 in   Light Drizzle
12:35 AM - - - N/A% 30.11 in 0.5 mi NNW 4.6 mph - 0.01 in Rain Light Rain
12:55 AM 44.6 °F - 44.6 °F 100% 30.11 in 0.5 mi Calm Calm - N/A Rain Light Rain
1:15 AM 44.6 °F - 44.6 °F 100% 30.11 in 0.5 mi Calm Calm - N/A   Light Drizzle
1:35 AM 42.8 °F - 42.8 °F 100% 30.10 in 0.2 mi Calm Calm - N/A Fog Fog
1:55 AM 42.8 °F - 42.8 °F 100% 30.11 in 0.2 mi Calm Calm - N/A Fog Fog
2:15 AM 42.8 °F - 42.8 °F 100% 30.09 in 0.2 mi Calm Calm - 0.01 in Rain Rain
2:35 AM 42.8 °F - 42.8 °F 100% 30.09 in 0.2 mi Calm Calm - 0.02 in Rain Light Rain
2:55 AM 42.8 °F - 42.8 °F 100% 30.07 in 0.5 mi Calm Calm - N/A Rain Light Rain
3:15 AM 42.8 °F - 42.8 °F 100% 30.05 in 0.8 mi Calm Calm - N/A Rain Light Rain
3:35 AM 42.8 °F - 42.8 °F 100% 30.05 in 0.8 mi Calm Calm - N/A   Overcast
3:55 AM 42.8 °F - 42.8 °F 100% 30.04 in 0.2 mi Calm Calm - N/A Fog Fog
4:15 AM 42.8 °F - 42.8 °F 100% 30.03 in 0.2 mi Calm Calm - N/A Fog Fog
4:35 AM 42.8 °F - 42.8 °F 100% 30.01 in 0.2 mi Calm Calm - N/A Fog Fog
4:55 AM 44.6 °F - 44.6 °F 100% 29.99 in 0.2 mi Calm Calm - N/A Fog Fog
5:15 AM 44.6 °F - 44.6 °F 100% 29.98 in 0.2 mi Calm Calm - N/A Fog Fog
5:35 AM 44.6 °F - 44.6 °F 100% 29.97 in 0.2 mi Calm Calm - N/A Fog Fog
5:55 AM 44.6 °F - 44.6 °F 100% 29.96 in 0.2 mi Calm Calm - N/A Fog Fog
6:15 AM 46.4 °F - 46.4 °F 100% 29.96 in 0.2 mi Calm Calm - N/A Fog Fog
6:35 AM 46.4 °F - 46.4 °F 100% 29.95 in 0.2 mi Calm Calm - N/A Fog Fog
6:55 AM 48.2 °F - 48.2 °F 100% 29.92 in 0.2 mi SSE 5.8 mph - N/A Fog Fog
7:15 AM 53.6 °F - 53.6 °F 100% 29.92 in 0.2 mi South 5.8 mph - 0.01 in Fog Fog
7:35 AM 55.4 °F - 55.4 °F 100% 29.92 in 0.2 mi South 4.6 mph - 0.01 in Fog Fog
7:55 AM 57.2 °F - 57.2 °F 100% 29.90 in 0.2 mi SSE 6.9 mph - N/A Fog Fog
8:15 AM 60.8 °F - 60.8 °F 100% 29.90 in 0.5 mi South 9.2 mph - N/A Fog Fog
8:35 AM 62.6 °F - 62.6 °F 100% 29.88 in 4.0 mi South 10.4 mph - N/A   Overcast
8:55 AM 62.6 °F - 62.6 °F 100% 29.89 in 4.0 mi South 9.2 mph - N/A   Overcast
9:15 AM 64.4 °F - 64.4 °F 100% 29.89 in 4.0 mi South 10.4 mph - N/A   Overcast
9:35 AM 64.4 °F - 64.4 °F 100% 29.88 in 10.0 mi North - - N/A   Overcast
9:55 AM 64.4 °F - 64.4 °F 100% 29.87 in 10.0 mi South 13.8 mph - N/A   Overcast
10:35 AM 64.4 °F - 64.4 °F 100% 29.85 in 10.0 mi South 12.7 mph 18.4 mph N/A Thunderstorm Overcast
10:55 AM 64.4 °F - 64.4 °F 100% 29.83 in 10.0 mi South 13.8 mph 21.9 mph N/A Rain Light Rain
11:15 AM 64.4 °F - 64.4 °F 100% 29.82 in 5.0 mi SSW 5.8 mph - 0.03 in Rain Rain
11:35 AM 64.4 °F - 64.4 °F 100% 29.80 in 3.0 mi SSW 10.4 mph - 0.04 in Rain Rain
11:55 AM 64.4 °F - 64.4 °F 100% 29.78 in 3.0 mi SSW 11.5 mph 19.6 mph 0.07 in Rain Heavy Rain
12:15 PM 66.2 °F - 66.2 °F 100% 29.73 in 10.0 mi South 17.3 mph 24.2 mph 0.11 in   Overcast
12:35 PM 66.2 °F - 66.2 °F 100% 29.70 in 10.0 mi South 18.4 mph 24.2 mph 0.11 in Rain Light Rain
12:55 PM 66.2 °F - 66.2 °F 100% 29.69 in 10.0 mi South 12.7 mph 23.0 mph N/A Rain Light Rain
1:15 PM 68.0 °F - 68.0 °F 100% 29.66 in 10.0 mi South 17.3 mph 23.0 mph N/A   Overcast
1:35 PM 69.8 °F - 66.2 °F 88% 29.66 in 10.0 mi South 19.6 mph 27.6 mph N/A   Overcast
1:55 PM 69.8 °F - 66.2 °F 88% 29.64 in 10.0 mi South 18.4 mph 25.3 mph N/A   Overcast
2:15 PM 60.8 °F - 57.2 °F 88% 29.70 in 7.0 mi West 13.8 mph 38.0 mph 0.04 in Rain , Thunderstorm Heavy Thunderstorms and Rain
2:35 PM 57.2 °F - 57.2 °F 100% 29.73 in 5.0 mi West 8.1 mph 27.6 mph 0.28 in Rain Heavy Rain
2:55 PM 57.2 °F - 57.2 °F 100% 29.74 in 10.0 mi WSW 5.8 mph - 0.04 in Rain Rain
3:35 PM 57.2 °F - 57.2 °F 100% 29.73 in 10.0 mi SSW 5.8 mph - 0.05 in Rain Light Rain
3:55 PM 57.2 °F - 57.2 °F 100% 29.71 in 10.0 mi SSW 4.6 mph - N/A   Drizzle
4:15 PM 57.2 °F - 57.2 °F 100% 29.68 in 10.0 mi North - - N/A Rain Light Rain
4:35 PM 55.4 °F - 55.4 °F 100% 29.69 in 10.0 mi SSW 4.6 mph - N/A   Overcast
4:55 PM 55.4 °F - 55.4 °F 100% 29.67 in 10.0 mi North - - N/A   Overcast
5:15 PM 55.4 °F - 55.4 °F 100% 29.64 in 10.0 mi South 8.1 mph - N/A   Overcast
5:35 PM 55.4 °F - 55.4 °F 100% 29.62 in 10.0 mi SSE 9.2 mph - N/A Rain Light Rain
5:55 PM 55.4 °F - 55.4 °F 100% 29.63 in 10.0 mi South 10.4 mph - N/A   Drizzle
6:15 PM 55.4 °F - 55.4 °F 100% 29.63 in 10.0 mi Calm Calm - N/A   Overcast
6:35 PM 55.4 °F - 55.4 °F 100% 29.64 in 10.0 mi SSW 9.2 mph - N/A   Scattered Clouds
6:55 PM 55.4 °F - 55.4 °F 100% 29.62 in 10.0 mi South 9.2 mph - N/A   Clear
7:15 PM 55.4 °F - 55.4 °F 100% 29.63 in 10.0 mi South 10.4 mph - N/A   Clear
7:35 PM 57.2 °F - 55.4 °F 94% 29.63 in 10.0 mi South 11.5 mph - N/A   Scattered Clouds
7:55 PM 57.2 °F - 55.4 °F 94% 29.63 in 10.0 mi South 11.5 mph - N/A   Clear
8:15 PM 57.2 °F - 55.4 °F 94% 29.64 in 10.0 mi SSW 10.4 mph 16.1 mph N/A   Clear
8:35 PM 57.2 °F - 55.4 °F 94% 29.65 in 10.0 mi SSW 10.4 mph 17.3 mph N/A   Mostly Cloudy
8:55 PM 57.2 °F - 55.4 °F 94% 29.65 in 10.0 mi SW 8.1 mph - N/A   Overcast
9:15 PM 57.2 °F - 55.4 °F 94% 29.65 in 10.0 mi SW 8.1 mph 17.3 mph N/A   Overcast
9:35 PM 57.2 °F - 55.4 °F 94% 29.66 in 10.0 mi WSW 6.9 mph 17.3 mph N/A   Overcast
9:55 PM 57.2 °F - 55.4 °F 94% 29.66 in 10.0 mi SW 9.2 mph 16.1 mph N/A   Overcast
10:15 PM 57.2 °F - 55.4 °F 94% 29.66 in 10.0 mi SW 9.2 mph - N/A   Scattered Clouds
10:35 PM 55.4 °F - 55.4 °F 100% 29.67 in 10.0 mi SW 8.1 mph 16.1 mph N/A   Scattered Clouds
10:55 PM 55.4 °F - 55.4 °F 100% 29.67 in 10.0 mi WSW 9.2 mph - N/A   Scattered Clouds
11:15 PM 55.4 °F - 53.6 °F 94% 29.67 in 10.0 mi SW 5.8 mph - N/A   Clear
11:35 PM 55.4 °F - 55.4 °F 100% 29.68 in 10.0 mi West 5.8 mph - N/A   Mostly Cloudy
11:55 PM 55.4 °F - 53.6 °F 94% 29.69 in 10.0 mi West 6.9 mph - N/A Rain Light Rain